| time (UTC) | temp F | wind direction | speed MPH | gust MPH | rain 1hr in | rain 24hr in | rain mn in | humidity % | barometer mb |
| 20260506083013 | 48 | 89 | 3.0 | 7.0 | 0.00 | 0.01 | 0.00 | 72 | 1016.1 |
| 20260506081510 | 47 | 11 | 3.0 | 8.0 | 0.00 | 0.01 | 0.00 | 76 | 1016.1 |
| 20260506073009 | 45 | 44 | 2.0 | 8.0 | 0.00 | 0.01 | 0.00 | 81 | 1015.8 |
| 20260506071508 | 44 | 15 | 3.0 | 8.0 | 0.00 | 0.01 | 0.00 | 81 | 1015.7 |
| 20260506061513 | 47 | 100 | 3.0 | 9.0 | 0.00 | 0.01 | 0.00 | 76 | 1015.2 |
| 20260506044551 | 44 | 307 | 3.0 | 8.0 | 0.00 | 0.01 | 0.00 | 81 | 1015.0 |
| 20260506043045 | 43 | 193 | 3.0 | 10.0 | 0.00 | 0.01 | 0.00 | 82 | 1015.2 |
| 20260506041548 | 43 | 347 | 3.0 | 9.0 | 0.00 | 0.01 | 0.00 | 83 | 1015.1 |
| 20260506040057 | 43 | 147 | 1.0 | 8.0 | 0.00 | 0.01 | 0.00 | 84 | 1015.2 |
| 20260506034548 | 43 | 203 | 4.0 | 8.0 | 0.00 | 0.01 | 0.00 | 85 | 1015.2 |
| 20260506033042 | 43 | 25 | 1.0 | 5.0 | 0.00 | 0.01 | 0.00 | 84 | 1015.2 |
| 20260506031553 | 43 | 111 | 1.0 | 7.0 | 0.00 | 0.01 | 0.00 | 84 | 1015.2 |
| 20260506030039 | 42 | 121 | 2.0 | 7.0 | 0.00 | 0.01 | 0.00 | 84 | 1015.3 |
| 20260506024538 | 42 | 6 | 3.0 | 9.0 | 0.00 | 0.01 | 0.00 | 85 | 1015.2 |
| 20260506023036 | 43 | 321 | 3.0 | 8.0 | 0.00 | 0.01 | 0.00 | 85 | 1015.2 |
| 20260506021534 | 43 | 127 | 1.0 | 4.0 | 0.00 | 0.01 | 0.00 | 85 | 1015.2 |
| 20260506020032 | 43 | 354 | 1.0 | 7.0 | 0.00 | 0.01 | 0.00 | 84 | 1015.3 |
| 20260506014532 | 43 | 200 | 2.0 | 9.0 | 0.00 | 0.01 | 0.00 | 84 | 1015.4 |
| 20260506013028 | 43 | 309 | 3.0 | 8.0 | 0.00 | 0.01 | 0.00 | 85 | 1015.5 |
| 20260506011529 | 43 | 71 | 4.0 | 11.0 | 0.00 | 0.01 | 0.00 | 84 | 1015.5 |
| 20260506010026 | 43 | 314 | 3.0 | 10.0 | 0.00 | 0.01 | 0.00 | 83 | 1015.5 |
| 20260506004527 | 44 | 360 | 5.0 | 11.0 | 0.00 | 0.01 | 0.00 | 83 | 1015.5 |
| 20260506003021 | 43 | 6 | 4.0 | 9.0 | 0.00 | 0.01 | 0.00 | 86 | 1015.6 |
| 20260506001518 | 43 | 36 | 2.0 | 7.0 | 0.00 | 0.01 | 0.00 | 85 | 1015.7 |
| 20260506000018 | 43 | 1 | 1.0 | 5.0 | 0.00 | 0.01 | 0.00 | 85 | 1015.7 |
| 20260505234514 | 43 | 3 | 3.0 | 7.0 | 0.00 | 0.01 | 0.00 | 85 | 1015.8 |
| 20260505233010 | 43 | 39 | 4.0 | 8.0 | 0.00 | 0.01 | 0.00 | 85 | 1016.0 |
| 20260505231508 | 43 | 349 | 2.0 | 10.0 | 0.00 | 0.01 | 0.00 | 86 | 1016.1 |
| 20260505230004 | 44 | 1 | 2.0 | 10.0 | 0.00 | 0.01 | 0.00 | 85 | 1016.1 |
| 20260505224502 | 44 | 334 | 2.0 | 7.0 | 0.00 | 0.01 | 0.01 | 86 | 1016.1 |
| 20260505223002 | 44 | 334 | 3.0 | 10.0 | 0.00 | 0.01 | 0.01 | 86 | 1016.0 |
| 20260505221603 | 44 | 73 | 4.0 | 11.0 | 0.00 | 0.01 | 0.01 | 86 | 1016.2 |
| 20260505220058 | 44 | 320 | 3.0 | 8.0 | 0.00 | 0.01 | 0.01 | 85 | 1016.1 |
| 20260505214600 | 44 | 352 | 4.0 | 13.0 | 0.00 | 0.01 | 0.01 | 86 | 1016.2 |
| 20260505213059 | 44 | 141 | 3.0 | 9.0 | 0.00 | 0.01 | 0.01 | 85 | 1016.0 |
| 20260505211610 | 44 | 88 | 3.0 | 13.0 | 0.00 | 0.01 | 0.01 | 86 | 1016.2 |
| 20260505204600 | 44 | 335 | 4.0 | 12.0 | 0.00 | 0.01 | 0.01 | 85 | 1016.2 |
| 20260505203055 | 45 | 338 | 3.0 | 10.0 | 0.00 | 0.01 | 0.01 | 86 | 1016.2 |
| 20260505201557 | 44 | 82 | 4.0 | 14.0 | 0.00 | 0.01 | 0.01 | 85 | 1016.2 |
| 20260505200050 | 44 | 319 | 5.0 | 13.0 | 0.00 | 0.01 | 0.01 | 85 | 1016.1 |
| 20260505194605 | 45 | 79 | 3.0 | 10.0 | 0.00 | 0.01 | 0.01 | 85 | 1016.1 |
| 20260505193045 | 45 | 53 | 4.0 | 10.0 | 0.00 | 0.01 | 0.01 | 85 | 1015.9 |
| 20260505191544 | 45 | 29 | 5.0 | 14.0 | 0.00 | 0.01 | 0.01 | 84 | 1016.0 |
| 20260505190045 | 45 | 44 | 6.0 | 11.0 | 0.00 | 0.01 | 0.01 | 84 | 1016.0 |
| 20260505184540 | 45 | 291 | 5.0 | 9.0 | 0.00 | 0.01 | 0.01 | 84 | 1016.0 |
| 20260505183041 | 46 | 211 | 5.0 | 13.0 | 0.00 | 0.01 | 0.01 | 83 | 1015.9 |
| 20260505181542 | 47 | 129 | 3.0 | 13.0 | 0.00 | 0.01 | 0.01 | 81 | 1015.7 |
| 20260505180039 | 47 | 360 | 3.0 | 11.0 | 0.00 | 0.01 | 0.01 | 82 | 1015.7 |
| 20260505174540 | 48 | 18 | 6.0 | 15.0 | 0.00 | 0.01 | 0.01 | 83 | 1015.8 |
| 20260505173035 | 48 | 310 | 4.0 | 10.0 | 0.00 | 0.01 | 0.01 | 82 | 1015.7 |
| 20260505171534 | 48 | 27 | 6.0 | 14.0 | 0.00 | 0.01 | 0.01 | 83 | 1015.7 |
| 20260505170031 | 48 | 11 | 7.0 | 14.0 | 0.00 | 0.01 | 0.01 | 84 | 1015.6 |
| 20260505164528 | 48 | 319 | 4.0 | 14.0 | 0.00 | 0.01 | 0.01 | 84 | 1015.6 |
| 20260505163027 | 48 | 12 | 5.0 | 12.0 | 0.00 | 0.01 | 0.01 | 84 | 1015.7 |
| 20260505161528 | 49 | 336 | 4.0 | 14.0 | 0.00 | 0.01 | 0.01 | 84 | 1015.5 |
| 20260505153024 | 50 | 336 | 6.0 | 12.0 | 0.00 | 0.01 | 0.01 | 78 | 1015.4 |
| 20260505151524 | 50 | 1 | 4.0 | 15.0 | 0.00 | 0.01 | 0.01 | 79 | 1015.2 |
| 20260505123011 | 49 | 8 | 4.0 | 10.0 | 0.01 | 0.01 | 0.01 | 87 | 1014.8 |
| 20260505121512 | 50 | 307 | 3.0 | 12.0 | 0.00 | 0.00 | 0.00 | 86 | 1014.7 |
| 20260505120011 | 51 | 23 | 5.0 | 11.0 | 0.00 | 0.00 | 0.00 | 84 | 1014.6 |
| 20260505114508 | 52 | 29 | 6.0 | 13.0 | 0.00 | 0.00 | 0.00 | 81 | 1014.5 |
| 20260505113007 | 53 | 3 | 3.0 | 8.0 | 0.00 | 0.00 | 0.00 | 81 | 1014.4 |
| 20260505111512 | 52 | 325 | 5.0 | 12.0 | 0.00 | 0.00 | 0.00 | 80 | 1014.4 |
| 20260505101503 | 53 | 136 | 3.0 | 11.0 | 0.00 | 0.00 | 0.00 | 80 | 1014.4 |
| 20260505100003 | 52 | 9 | 3.0 | 9.0 | 0.00 | 0.00 | 0.00 | 79 | 1014.4 |
| 20260505094503 | 52 | 343 | 4.0 | 11.0 | 0.00 | 0.00 | 0.00 | 78 | 1014.3 |
| 20260505093001 | 53 | 302 | 4.0 | 10.0 | 0.00 | 0.00 | 0.00 | 78 | 1014.3 |
| 20260505091602 | 52 | 4 | 3.0 | 7.0 | 0.00 | 0.00 | 0.00 | 77 | 1014.4 |
| 20260505090100 | 53 | 93 | 4.0 | 8.0 | 0.00 | 0.00 | 0.00 | 75 | 1014.2 |
| 20260505084558 | 54 | 11 | 3.0 | 8.0 | 0.00 | 0.00 | 0.00 | 73 | 1014.3 |